Torna al catalogo

STARLINK-1347

AttivoComunicazioniVLEO
NORAD 45586·PAYLOAD·🇺🇸 United States

Lanciato Apr 22, 2020 da Cape Canaveral Space Force Station

Loading…

Prossimi Passaggi (prossime 24 ore)

TLE

AggiornatoSource: CelesTrak SupGP

Epoca: Sep 14, 2026, 20:57 UTC

1 45586C 20025BH  26257.87340278  .00079884  00000+0  38304-3 0  2571
2 45586  53.0325 175.4882 0005259 104.6221 188.3842 15.81950981    12

Traccia STARLINK-1347 in tempo reale con AllMySat

Download on the App Store